Regional Weather Roundup
Issued by NWS

Home | Current Version | Previous Version | Graphics & Text | Print | Product List | Glossary On
Versions: 1 2 3 4 5 6 7 8 9 10 11 12 13 14 15 16 17 18 19 20 21 22 23 24 25 26 27 28 29 30 31 32 33 34 35 36 37 38 39 40 41 42 43 44 45 46 47 48 49 50
000
ASUS45 KABQ 171401
RWRNM
NEW MEXICO REGIONAL WEATHER ROUNDUP
NATIONAL WEATHER SERVICE ALBUQUERQUE NM
700 AM MST FRI NOV 17 2017

NOTE: "FAIR" MEANS FEW OR NO CLOUDS BELOW 12,000 FEET AGL WITH NO
       SIGNIFICANT WEATHER OR OBSTRUCTIONS TO VISION.

      THIS PRODUCT IS RELEASED AS TWO VERSIONS.  ONE VERSION NEAR
      THE TOP OF THE HOUR CONTAINING PRELIMINARY DATA FROM ALBUQUERQUE
      AND OTHER STATIONS.  A FINAL VERSION WITH ADDITIONAL DATA IS
      ISSUED ABOUT 10 MINUTES AFTER THE HOUR.

NMZ501-503-504-510>518-171500-
NORTHWEST PLATEAU/NORTHCENTRAL MOUNTAINS

CITY           SKY/WX    TMP DP  RH WIND       PRES   REMARKS
FARMINGTON     FAIR      50  28  42 CALM      29.98F
LOS ALAMOS     FAIR      47  22  37 SW6       30.10F
SANTA FE       FAIR      49  24  37 S6        30.08F
TAOS           FAIR      44  25  47 S7        30.07F
ANGEL FIRE     CLOUDY    46  26  45 W14G26    30.10S

$$
NMZ402-403-502-505>509-171500-
WESTCENTRAL MOUNTAINS/SOUTHWEST MOUNTAINS

CITY           SKY/WX    TMP DP  RH WIND       PRES   REMARKS
GALLUP         MOCLDY    48  24  39 SW9       30.11S
GRANTS         FAIR      46  19  34 E5        30.13R
SILVER CITY    FAIR      47  20  34 N13       30.15R

$$
NMZ407-409-411-412-171500-
SOUTHERN DESERTS

CITY           SKY/WX    TMP DP  RH WIND       PRES   REMARKS
DEMING         FAIR      42  21  43 NW8       30.11R
LAS CRUCES     FAIR      51  22  31 W10       30.10R
HOLLOMAN AFB   FAIR      55  28  35 SE10      30.08R
ALAMOGORDO     FAIR      55  28  35 S10       30.07R
T OR C         FAIR      54  22  28 CALM      30.08R

$$
NMZ519>523-171500-
CENTRAL VALLEYS/CENTRAL HIGHLANDS

CITY           SKY/WX    TMP DP  RH WIND       PRES   REMARKS
ALBUQUERQUE    MOCLDY    48  19  31 SE8       30.08R
DOUBLE EAGLE   MOCLDY    46  19  34 S10       30.09R
MORIARTY ARPT  FAIR      58  19  21 W14G25    30.11R
CLINES CORNERS FAIR      52  15  23 W31G39    30.10S
BELEN          FAIR      42  19  40 CALM      30.08S
SOCORRO        FAIR      43  21  41 CALM      30.08R

$$
NMZ524>526-539-540-171500-
SOUTHCENTRAL MOUNTAINS

CITY           SKY/WX    TMP DP  RH WIND       PRES   REMARKS
RUIDOSO        FAIR      59  16  18 W15       30.13R

$$
NMZ527>531-171500-
NORTHEAST HIGHLANDS/NORTHEAST PLAINS

CITY           SKY/WX    TMP DP  RH WIND       PRES   REMARKS
LAS VEGAS      FAIR      55  25  31 W35G45    29.99R
RATON          FAIR      57  28  33 W23G39    29.90R
CLAYTON        FAIR      45  31  58 NW6       29.85F

$$
NMZ532>537-171500-
EASTCENTRAL PLAINS

CITY           SKY/WX    TMP DP  RH WIND       PRES   REMARKS
SANTA ROSA     FAIR      59  19  21 W7G23     29.96S
TUCUMCARI      FAIR      52  27  38 SW14      29.87S
CANNON AFB     FAIR      44  44 100 W7        29.98R
CLOVIS AIRPORT FAIR      45  38  76 SW10      29.96R

$$
NMZ028-029-538-171500-
SOUTHEAST PLAINS

CITY           SKY/WX    TMP DP  RH WIND       PRES   REMARKS
ROSWELL        FAIR      45  42  89 W5        29.96S
ARTESIA        FAIR      57  32  38 SW13      29.97S
CARLSBAD       FAIR      47  47 100 SE8       29.96F
HOBBS          CLEAR     46  41  81 SW7       29.98S


$$




USA.gov is the U.S. government's official web portal to all federal, state and local government web resources and services.